Theta_e
320 320 320 322 324 325 328 329 330 331 335 338 340 344 344 342 341 341 340 341 336 330 336 340 344 344 343 342 341 340 338 337 337 336 335 334 334 333 332 333 338 335 334
318 318 319 320 324 325 325 325 324 324 324 325 325 337 341 342 338 332 324 337 335 333 335 338 341 341 341 341 340 338 336 336 336 335 335 335 337 336 336 335 337 337 337
315 315 315 317 320 321 323 324 323 322 319 320 317 317 315 338 338 333 330 330 320 335 339 341 339 338 338 338 339 337 334 335 335 334 334 333 337 336 335 331 336 335 335
315 315 315 314 316 318 319 320 323 321 317 318 319 318 318 332 337 336 336 337 335 333 336 336 335 336 336 337 338 336 334 332 332 332 333 334 334 332 333 335 335 334 335
315 314 314 313 313 313 314 319 321 320 317 316 318 318 318 319 330 332 333 333 331 329 332 330 333 335 334 333 332 330 325 324 324 323 323 323 325 330 332 333 332 333 333
315 314 313 313 312 312 312 313 319 319 316 315 314 316 319 318 322 325 325 329 329 328 330 330 328 323 321 324 324 316 313 313 314 318 320 320 321 322 324 329 332 333 332
314 314 313 312 312 312 312 311 313 319 318 316 315 318 319 320 317 321 321 324 325 324 325 323 320 320 318 317 312 312 315 316 317 317 321 323 324 324 326 327 326 331 333
312 312 312 312 310 310 310 311 312 314 319 318 318 318 318 320 322 320 317 320 324 322 321 320 321 320 317 318 318 317 318 320 319 319 319 318 318 322 323 325 326 326 331
311 311 311 310 310 309 310 310 310 312 315 318 320 319 318 319 321 319 319 317 321 322 321 324 322 319 319 318 320 320 319 318 318 318 318 317 317 316 314 318 320 324 325
310 310 310 309 309 309 309 309 309 310 313 317 320 321 320 321 322 321 317 317 317 322 323 324 323 324 324 321 320 319 321 320 320 319 318 317 312 315 317 320 323 327 327
306 307 307 307 309 308 308 308 308 308 309 310 317 320 322 324 323 322 320 315 317 319 325 325 325 323 325 323 322 321 321 320 320 318 316 315 316 316 318 320 322 325 328
303 304 306 307 306 308 308 307 307 307 308 309 312 317 321 322 323 323 322 317 317 317 323 324 324 324 322 322 321 320 319 319 316 315 316 316 316 318 319 324 329 330 330
301 302 303 305 306 307 307 307 306 306 307 306 309 313 319 322 322 322 322 318 316 316 321 320 320 322 322 321 321 320 319 316 315 317 317 317 318 320 324 323 322 328 328
299 301 302 304 306 305 305 306 306 307 307 307 308 311 316 321 321 322 321 319 319 319 319 321 320 318 319 320 320 319 318 315 316 317 317 318 319 322 324 324 328 329 333
297 299 301 301 302 303 303 304 304 305 306 306 308 311 314 320 311 311 320 319 316 314 318 320 320 319 317 318 318 318 318 317 318 317 318 319 322 324 326 325 329 329 332
296 298 300 301 302 303 303 303 303 303 304 304 305 306 306 306 306 305 310 318 321 321 318 319 320 321 321 321 321 320 318 318 318 319 320 321 323 325 326 327 329 330 330
296 298 299 299 300 301 302 302 302 302 302 302 302 304 304 304 305 305 304 309 317 318 317 317 319 319 320 319 318 319 319 319 319 319 320 323 326 325 325 327 328 328 328
295 295 296 299 300 300 301 301 301 302 303 305 303 303 303 303 304 304 304 305 311 314 316 316 316 317 318 319 319 318 318 317 317 318 320 323 326 326 325 327 328 328 329
295 295 295 295 298 298 298 300 301 302 303 304 305 305 304 304 304 304 303 305 309 315 317 317 318 318 317 315 315 316 316 317 318 319 323 325 325 325 326 327 327 328 327
294 294 295 295 296 297 297 298 299 301 303 304 304 305 305 304 302 302 303 305 308 312 315 314 314 314 313 313 313 314 316 316 318 318 324 324 323 322 327 327 326 324 326
295 295 295 295 295 296 296 296 297 298 301 303 304 304 305 305 307 305 305 307 309 311 314 314 313 313 312 312 313 315 316 317 317 323 324 324 323 324 325 326 325 326 328
298 297 297 297 296 295 295 295 296 298 299 301 302 303 305 306 306 308 308 308 310 310 312 312 312 312 314 314 314 315 315 317 321 323 323 323 324 326 327 326 327 327 326
302 302 303 302 299 298 295 295 296 297 299 300 302 302 303 305 307 307 308 309 310 310 310 310 311 312 313 312 315 317 316 316 321 322 322 324 326 326 326 326 327 325 323
309 310 311 305 303 301 298 297 297 298 299 301 301 303 303 305 308 307 308 308 309 310 310 309 310 311 313 313 314 315 317 316 319 324 324 325 327 328 327 327 327 324 321
302 304 306 308 304 301 300 300 300 300 301 302 302 303 304 305 306 307 308 308 309 310 310 311 311 312 312 313 313 313 315 320 322 323 324 325 325 324 327 326 323 321 319
296 298 300 301 304 307 305 303 302 303 303 304 305 306 305 306 306 307 309 308 310 310 310 311 311 312 312 312 314 315 318 321 321 322 324 326 327 326 323 322 320 316 314
Wind_Speed
18 15 18 20 18 20 16 19 20 20 23 31 38 37 29 36 41 37 36 30 17 14 33 20 21 20 19 17 16 20 22 19 10 21 19 18 21 25 30 27 23 28 26
17 15 15 17 17 19 20 21 24 23 23 24 29 39 35 28 29 27 20 34 22 41 46 33 22 17 17 18 18 16 19 20 21 15 21 21 21 22 26 25 26 25 25
15 20 19 19 20 20 23 25 24 20 23 30 35 41 63 40 31 34 43 33 32 48 31 24 19 19 16 16 15 20 20 25 27 23 22 19 18 21 23 27 26 25 27
17 17 16 21 23 25 25 28 27 22 25 30 33 40 57 20 25 32 33 31 32 23 21 24 19 16 17 16 17 15 12 13 16 15 17 16 18 22 22 22 21 22 23
16 17 17 19 23 29 32 29 24 20 19 11 12 22 46 52 20 28 26 22 15 15 15 16 17 18 17 14 13 7 7 3 3 10 10 12 12 10 13 15 18 19 20
21 21 22 22 22 26 30 34 24 22 20 17 26 23 26 38 18 5 9 21 14 11 12 13 13 13 14 15 13 6 4 3 5 7 11 9 13 17 18 18 15 11 4
21 21 22 21 23 25 28 30 32 22 25 22 27 23 23 26 2 10 14 11 12 12 11 13 10 13 12 12 9 8 5 5 6 8 12 13 15 17 19 21 17 15 13
22 22 22 22 23 30 28 31 29 29 27 27 21 25 27 21 11 17 8 7 8 16 17 17 18 16 19 16 14 12 9 8 9 11 13 15 17 17 18 20 22 21 21
23 25 25 24 28 32 29 29 29 31 25 30 27 28 23 26 22 14 18 10 2 17 19 20 19 17 20 17 13 11 9 9 10 11 15 13 17 21 25 26 19 15 13
27 29 30 33 30 33 34 28 26 29 25 25 27 31 23 25 25 23 18 20 15 16 23 23 23 21 16 17 17 14 13 14 11 11 15 20 24 22 22 23 23 17 14
35 35 35 33 32 31 30 27 25 25 24 24 26 26 27 25 23 28 31 29 27 22 22 23 24 24 19 19 19 19 20 16 12 14 19 22 22 23 21 22 24 26 19
34 30 32 26 30 29 29 26 26 23 23 20 24 22 22 22 25 33 38 43 34 29 23 23 25 25 27 27 27 26 24 19 16 16 17 21 23 22 22 13 10 17 23
30 29 27 23 23 26 25 22 21 26 24 21 20 20 16 22 22 32 43 47 44 48 21 29 26 24 33 31 30 29 24 17 14 14 18 21 22 19 17 22 26 24 26
29 26 24 24 20 22 21 22 24 22 23 21 19 18 19 19 23 29 37 57 57 49 37 19 12 4 18 24 25 28 22 17 18 20 23 23 22 21 18 26 20 20 13
27 24 21 21 21 23 23 22 21 24 23 21 19 17 15 20 4 12 25 36 40 45 34 24 15 15 14 17 17 17 16 16 21 26 26 25 17 13 18 24 19 17 7
23 21 19 19 19 20 20 19 25 30 26 23 31 27 14 13 15 13 7 18 33 30 27 17 19 21 19 19 17 16 17 21 25 25 25 21 9 12 15 18 15 12 5
22 21 19 20 18 20 19 19 11 19 27 33 37 31 27 20 20 19 17 9 25 29 20 18 17 18 16 15 16 16 16 17 18 20 13 6 7 12 14 15 14 7 3
23 23 22 19 17 17 16 17 18 16 12 17 32 39 29 24 23 22 17 14 7 26 24 19 17 15 14 14 13 13 15 17 19 18 13 8 8 12 11 13 10 10 10
22 20 19 20 18 20 18 12 15 16 16 15 13 16 21 24 23 25 16 10 8 19 20 19 16 12 9 9 12 15 18 19 17 9 9 8 9 11 13 14 14 13 13
22 23 22 17 17 18 18 18 15 12 14 14 14 14 13 12 14 17 16 12 15 14 19 16 13 12 11 12 16 20 20 21 19 13 10 10 11 11 18 17 13 14 15
18 17 17 16 17 17 16 16 16 17 13 11 16 17 18 15 15 19 21 18 17 14 13 14 14 17 19 20 21 19 20 14 13 12 12 13 15 15 17 14 19 22 12
14 13 13 15 16 16 16 16 15 14 15 15 11 8 10 16 15 16 21 22 20 17 15 12 12 13 12 15 18 18 16 14 12 13 12 13 15 17 15 20 13 18 23
10 11 13 14 16 15 15 15 15 15 14 15 16 19 13 9 15 15 16 21 21 20 18 13 13 15 14 19 14 9 15 14 13 14 15 16 16 18 20 19 15 24 23
18 10 11 12 12 13 14 13 13 13 16 13 15 14 19 14 12 12 11 16 19 19 17 20 20 20 20 15 12 15 13 13 13 14 15 16 16 17 15 9 21 24 25
22 20 20 15 14 13 10 9 10 12 14 14 16 15 16 18 15 12 12 14 16 19 19 20 22 22 22 19 20 23 21 17 16 15 15 16 15 8 14 26 27 27 26
25 23 22 21 19 11 9 10 11 11 12 12 12 15 17 18 18 17 16 20 19 19 23 25 27 26 25 25 24 23 20 19 20 19 16 18 14 22 27 31 30 28 29
Wind_Direction
297 308 312 310 305 312 304 309 312 303 311 280 277 279 268 232 228 227 232 232 211 268 249 222 208 212 222 232 239 240 228 224 230 259 256 260 273 274 281 291 289 288 286
297 304 305 293 295 304 307 309 310 314 309 319 324 290 268 246 232 210 234 238 215 214 222 217 198 203 220 232 235 232 227 234 230 242 255 255 266 275 283 290 286 283 285
281 290 295 305 307 293 292 298 302 309 313 302 311 317 332 249 213 202 202 208 211 239 208 196 197 204 215 232 239 244 243 247 250 245 255 257 265 272 275 275 272 276 281
273 282 303 308 309 305 295 290 291 289 299 300 290 309 296 287 190 195 199 197 204 215 196 189 184 191 208 218 231 240 239 245 255 243 245 253 267 279 272 266 269 275 280
276 277 281 288 298 300 299 286 286 289 275 283 271 271 297 323 224 185 192 192 189 193 204 188 183 197 197 196 211 185 162 165 309 323 325 326 311 309 305 287 278 284 289
276 267 268 262 269 276 286 296 279 284 270 268 273 263 301 317 337 129 286 159 167 161 148 154 171 159 157 169 179 196 224 238 265 287 296 301 300 310 319 324 323 310 304
277 284 282 281 280 274 276 280 289 262 270 251 251 254 251 273 279 101 288 101 155 158 167 161 155 171 183 197 199 189 190 210 229 244 256 269 285 298 305 305 298 298 284
284 282 279 284 281 285 283 289 287 287 256 258 247 255 257 266 260 247 233 159 177 174 176 181 195 201 181 176 193 196 210 226 252 244 259 283 285 291 292 285 285 292 289
282 278 281 284 282 273 279 280 287 287 277 252 251 241 226 257 249 251 212 200 213 185 188 189 192 174 177 181 187 191 221 242 254 263 272 275 280 286 290 286 282 275 280
287 278 270 270 262 263 262 274 281 288 295 288 253 257 241 226 231 230 220 218 233 238 196 200 201 200 199 200 207 213 234 243 249 268 271 279 294 299 293 277 270 253 266
283 282 280 275 261 253 256 254 269 279 289 299 287 255 249 246 238 233 225 216 226 244 198 206 211 206 205 212 217 220 228 240 253 271 284 292 292 294 292 280 263 248 246
284 284 289 261 268 259 248 251 259 268 275 287 291 286 264 255 239 238 224 211 215 232 213 206 213 215 217 225 230 235 239 246 257 272 278 282 287 291 293 276 268 267 265
285 280 269 278 257 249 248 245 254 263 266 265 273 280 265 247 236 225 222 207 200 218 237 220 225 223 223 222 229 234 233 235 249 258 266 271 280 293 296 298 297 287 279
283 285 282 264 262 231 244 247 247 244 246 247 250 261 274 260 242 223 207 208 210 217 228 221 214 228 218 214 219 224 226 233 248 252 259 266 279 288 290 305 296 293 275
288 281 269 258 256 254 244 241 242 244 244 249 242 249 270 261 15 339 200 198 203 211 221 233 219 197 183 192 197 207 218 231 245 251 254 259 258 296 295 303 296 284 216
284 279 269 258 251 240 238 244 247 247 252 253 258 262 266 288 300 1 313 195 195 195 195 210 222 225 212 215 218 224 235 242 248 254 258 260 267 286 290 294 283 256 183
276 275 271 265 258 245 238 238 234 245 249 250 247 253 258 263 276 299 336 289 204 177 180 197 202 208 214 213 220 226 241 252 263 269 263 245 255 286 286 281 271 269 288
274 270 273 263 250 248 246 240 237 234 237 230 234 241 253 256 260 270 291 322 225 194 182 189 206 222 226 229 236 248 258 265 267 261 250 245 268 275 275 258 244 246 263
280 264 257 255 250 235 242 260 223 229 238 236 240 239 220 237 253 263 261 268 275 191 189 195 201 213 228 238 260 261 256 263 268 257 226 224 262 265 261 251 250 254 255
276 268 257 247 244 236 225 226 234 239 226 220 224 230 232 198 196 208 216 215 245 243 196 202 212 228 249 257 251 257 256 255 254 245 232 240 245 257 243 239 236 268 262
271 267 255 245 232 225 215 216 222 223 226 230 218 221 221 223 213 210 203 208 218 235 221 193 201 209 217 235 249 254 258 259 260 227 216 236 241 243 243 240 261 258 214
264 261 251 238 231 217 213 202 207 214 212 220 224 221 225 223 246 219 201 202 203 215 226 216 229 240 234 222 241 261 268 265 263 232 230 240 239 244 240 242 251 144 125
293 278 268 241 226 200 190 191 199 209 206 203 208 224 232 225 223 233 218 199 198 201 209 218 226 239 257 258 273 255 250 247 257 247 250 239 238 231 230 239 153 134 130
11 348 359 54 40 152 162 179 186 190 198 190 199 209 208 216 203 197 206 201 210 210 208 211 225 238 246 256 246 253 254 260 265 255 248 235 231 223 238 263 144 135 133
19 16 20 36 85 108 136 152 168 186 188 190 196 200 201 205 213 203 202 205 205 206 206 211 219 228 237 235 237 245 244 249 251 257 245 228 221 223 160 134 127 128 130
24 25 24 26 29 55 122 144 164 184 186 189 189 182 180 189 193 196 201 202 204 207 212 216 219 223 225 233 238 234 241 246 253 240 239 209 187 153 133 132 131 129 129